This demonstration page uses our WeatherBlox Daily Observations layout. Learn more.

Left ArrowRight Arrow

41.86663, -103.66717

Hourly Observations for October 20, 2021

Temp ( °F °C ) Dew Point ( °F °C ) Humidity (%) Winds ( mph kmh ) Pressure ( in mb ) Visibility ( mi km ) Precip ( " mm )
12:05 am 00:05 Cloudy with Light Snow 36 2 N/A N/A NW 9 15 30.22 1023 9 14 0.00 0.00
12:53 am 00:53 Cloudy with Light Rain 37 3 N/A N/A NW 9 15 30.15 1021 10 16 0.00 0.00
1:21 am 01:21 Cloudy 37 3 N/A N/A WNW 8 13 30.21 1023 10 16 0.01 0.25
1:45 am 01:45 Cloudy 37 3 N/A N/A NW 8 13 30.21 1023 10 16 0.01 0.25
1:53 am 01:53 Cloudy 37 3 N/A N/A NW 7 11 30.16 1021 10 16 0.01 0.25
2:47 am 02:47 Cloudy 37 3 N/A N/A WNW 7 11 30.21 1023 10 16 N/A
2:53 am 02:53 Cloudy 37 3 N/A N/A W 6 9 30.17 1022 10 16 N/A
3:04 am 03:04 Cloudy 37 3 N/A N/A undefined N/A 30.21 1023 10 16 N/A
3:17 am 03:17 Cloudy with Light Rain 37 3 N/A N/A undefined N/A 30.21 1023 6 10 0.00 0.00
3:37 am 03:37 Cloudy 37 3 N/A N/A WNW 8 13 30.21 1023 10 16 0.00 0.00
3:46 am 03:46 Cloudy 37 3 N/A N/A WNW 7 11 30.21 1023 10 16 0.00 0.00
3:53 am 03:53 Cloudy with Light Rain 37 3 N/A N/A WNW 7 11 30.18 1022 10 16 0.00 0.00
4:04 am 04:04 Cloudy 37 3 N/A N/A WNW 9 15 30.22 1023 10 16 0.00 0.00
4:33 am 04:33 Cloudy 37 3 N/A N/A NW 8 13 30.23 1024 10 16 0.00 0.00
4:53 am 04:53 Cloudy 37 3 N/A N/A undefined N/A 30.19 1022 10 16 0.00 0.00
4:57 am 04:57 Cloudy 37 3 N/A N/A undefined N/A 30.23 1024 10 16 N/A
5:53 am 05:53 Cloudy 37 2.8 37 2.8 100 100 WNW 10 17 30.21 1023 10 16 N/A
6:53 am 06:53 Cloudy 37 2.8 33 0.6 86 86 WNW 12 19 30.21 1023 10 16 N/A
7:45 am 07:45 Cloudy 37 2.8 33 0.6 86 86 NW 6 9 30.26 1025 10 16 N/A
7:53 am 07:53 Cloudy 37 2.8 34 1.1 89 89 WNW 5 7 30.23 1024 10 16 N/A
8:22 am 08:22 Cloudy 37 3 34 1 87 87 NW 8 13 30.26 1025 10 16 N/A
8:53 am 08:53 Cloudy 39 3.9 33 0.6 79 79 NW 14 22 30.23 1024 10 16 N/A
9:53 am 09:53 Cloudy 41 5 34 1.1 76 76 NW 14 22 30.23 1024 10 16 N/A
10:53 am 10:53 Cloudy 43 6.1 33 0.6 68 68 NW 13 20 30.23 1024 10 16 N/A
11:53 am 11:53 Cloudy 46 7.8 35 1.7 66 66 WNW 8 13 30.21 1023 10 16 N/A
12:53 pm 12:53 Cloudy 48 8.9 36 2.2 63 63 NW 8 13 30.20 1023 10 16 N/A
1:53 pm 13:53 Cloudy 49 9.4 36 2.2 61 61 WNW 8 13 30.19 1022 10 16 N/A
2:53 pm 14:53 Partly Cloudy 51 10.6 37 2.8 59 59 W 5 7 30.17 1022 10 16 N/A
3:53 pm 15:53 Mostly Cloudy 57 13.9 37 2.8 47 47 NW 13 20 30.14 1021 10 16 N/A
4:53 pm 16:53 Sunny 57 13.9 38 3.3 49 49 NNW 7 11 30.13 1020 10 16 N/A
5:53 pm 17:53 Sunny 49 9.4 40 4.4 71 71 ESE 7 11 30.15 1021 10 16 N/A
6:53 pm 18:53 Clear 46 7.8 38 3.3 73 73 N N/A 30.16 1021 10 16 N/A
7:53 pm 19:53 Clear 44 6.7 39 3.9 83 83 N 5 7 30.17 1022 10 16 N/A
8:53 pm 20:53 Clear 41 5 37 2.8 86 86 SSW 5 7 30.19 1022 10 16 N/A
9:53 pm 21:53 Clear 39 3.9 35 1.7 86 86 ENE 3 6 30.20 1023 10 16 N/A
10:53 pm 22:53 Clear 36 2.2 33 0.6 89 89 N N/A 30.22 1023 10 16 N/A
11:53 pm 23:53 Clear 37 2.8 33 0.6 86 86 ESE 3 6 30.21 1023 10 16 N/A

Powered by AerisWeather